Starlink 4553

operational
NORAD ID: 53577 Int'l Des: 2022-101 Owner: SPXS Country: US Constellation: starlink
LEOCIRCULAR

关于 Starlink 4553

正在加载描述...

实时位置

正在加载3D地球...

即将过境

高度历史

Altitude vs Time

uPlot chart will show altitude changes over time

两行轨道根数

1 53577U 22101BC 25260.90213100 .00000857 00000-0 71903-4 0 9998
2 53577 53.2164 109.5459 0001375 87.8974 272.2175 15.08839175171183
Epoch: Sep 17, 2025 • Age: 16 hours

当前状态

高度 551.7 km
速度 7.59 km/s
星下点 -35.30°S, 123.06°W
发射日期 Aug 19, 2022
运行时间 3 years
类型 internet

技术详情

分类 Payload
质量 300.00 kg
干质量 290.00 kg
总质量 300.00 kg
长度 0.20 m
直径 2.80 m
跨度 9.00 m
形状 Box + pan
制造商 SPXS
平台类型 Starlink
阶段状态 In Orbit
所有者/国家 SPXS/US

大型星座

Loading constellations...